Location: Baia Mare
(47.6567°N, 23.5850°E)
Time: 13:02:13
(UTC+03:00)

ISS - Pass Details

Date: 02 August 2018
Orbit: 402 x 408 km, 51.6° (Epoch: 21 July)

Event Time Altitude Azimuth Distance (km) Brightness Sun altitude
Rises 23:07:27 0° 292° (WNW) 2,324 1.0 -17.2°
Reaches altitude 10° 23:09:35 10° 285° (WNW) 1,462 -0.3 -17.4°
Maximum altitude 23:12:43 42° 213° (SSW) 586 -3.3 -17.7°
Enters shadow 23:12:53 42° 204° (SSW) 590 -3.3 -17.7°
